This is the latest recevied weather packets stored in our database for station/object N8ESC. If no packets are shown the sender has not sent any weather packets the latest 10 day(s).
| Time | Temp. | Humidity | Pressure | Rain* | Wind** | Luminosity | Snow |
|---|---|---|---|---|---|---|---|
| 1777483944 | 8.33° C | 60% | 1013.2 hPa | 0 mm | - | 511 W/m² | - |
| 1777483640 | 8.33° C | 62% | 1013.4 hPa | 0 mm | - | 549 W/m² | - |
| 1777483336 | 7.78° C | 62% | 1013.5 hPa | 0 mm | - | 543 W/m² | - |
| 1777483031 | 7.78° C | 62% | 1013.4 hPa | 0 mm | - | 506 W/m² | - |
| 1777482729 | 7.22° C | 63% | 1013.4 hPa | 0 mm | - | 545 W/m² | - |
| 1777482424 | 7.22° C | 64% | 1013.5 hPa | 0 mm | - | 572 W/m² | - |
| 1777482122 | 7.78° C | 64% | 1013.5 hPa | 0 mm | - | 531 W/m² | - |
| 1777481820 | 8.33° C | 64% | 1013.6 hPa | 0 mm | - | 608 W/m² | - |
| 1777481517 | 7.78° C | 63% | 1013.7 hPa | 0 mm | - | 509 W/m² | - |
| 1777481213 | 7.22° C | 64% | 1013.7 hPa | 0 mm | - | 522 W/m² | - |
| 1777480910 | 7.22° C | 64% | 1013.8 hPa | 0 mm | - | 441 W/m² | - |
| 1777480606 | 7.22° C | 64% | 1013.8 hPa | 0 mm | - | 494 W/m² | - |
| 1777480304 | 7.78° C | 65% | 1013.8 hPa | 0 mm | - | 456 W/m² | - |
| 1777479999 | 7.78° C | 63% | 1014 hPa | 0 mm | - | 634 W/m² | - |
| 1777479697 | 7.78° C | 64% | 1014.1 hPa | 0 mm | - | 468 W/m² | - |
| 1777479395 | 6.67° C | 65% | 1014.2 hPa | 0 mm | - | 590 W/m² | - |
| 1777479090 | 6.67° C | 67% | 1014.1 hPa | 0 mm | - | 540 W/m² | - |
| 1777478787 | 6.67° C | 65% | 1014.2 hPa | 0 mm | - | 556 W/m² | - |
| 1777478484 | 6.11° C | 68% | 1014.2 hPa | 0 mm | - | 521 W/m² | - |
| 1777478181 | 6.11° C | 68% | 1014.2 hPa | 0 mm | - | 336 W/m² | - |
| 1777477877 | 6.67° C | 67% | 1014.2 hPa | 0 mm | - | 331 W/m² | - |
| 1777477572 | 6.67° C | 67% | 1014.3 hPa | 0 mm | - | 376 W/m² | - |
| 1777477269 | 7.22° C | 68% | 1014.3 hPa | 0 mm | - | 353 W/m² | - |
| 1777476965 | 7.22° C | 63% | 1014 hPa | 0 mm | - | 334 W/m² | - |
| 1777476664 | 7.22° C | 66% | 1014.3 hPa | 0 mm | - | 329 W/m² | - |
* Rain latest hour (hover to see other rain measurements)
** Current wind speed in m/s (hover to see current wind gust speed)